Wendover, UT

8:13 AM MST on February 25, 2017 (GMT -0700)
Wendover

Weather History for KENV - May, 2013

Change the Weather History Date:

Thursday, May 23, 2013

  Actual Average Record
Temperature  
Mean Temperature 53 °F -  
Max Temperature 62 °F 75 °F 91 °F (1984)
Min Temperature 44 °F 52 °F 38 °F (1966)
Degree Days  
Heating Degree Days 12    
Growing Degree Days 3 (Base 50)    
Moisture  
Dew Point 26 °F    
Average Humidity 37    
Maximum Humidity 53    
Minimum Humidity 23    
Precipitation  
Precipitation 0.00 in - - ()
Sea Level Pressure  
Sea Level Pressure 29.87 in    
Wind  
Wind Speed 12 mph (West)    
Max Wind Speed 29 mph    
Max Gust Speed 40 mph    
Visibility 10 miles    
Events      
Averages and records for this station are not official NWS values.
T = Trace of Precipitation, MM = Missing Value Source: NWS Daily Summary

Daily Weather History Graph

Daily Weather History Graph

Search for Another Location

Airport or City:

Trip Planner

Search our weather history database for the weather conditions in past years. The results will help you decide how hot, cold, wet, or windy it might be!

Date:

Astronomy

May. 23, 2013 Rise Set
Actual Time 6:12 AM MDT 8:54 PM MDT
Civil Twilight 5:40 AM MDT 9:26 PM MDT
Nautical Twilight 5:00 AM MDT 10:06 PM MDT
Astronomical Twilight 4:14 AM MDT 10:51 PM MDT
Moon 7:31 PM MDT (5/23) 5:00 AM MDT (5/23)
Length of Visible Light 15h 45m
Length of Day
14h 42m
Waxing Gibbous, 97% of the Moon is Illuminated
May 23
Waxing Gibbous
May 24
Full
May 31
Last Quarter
Jun 8
New
Jun 16
First Quarter

Hourly Weather History & Observations

Time (MDT) Temp. Windchill Dew Point Humidity Pressure Visibility Wind Dir Wind Speed Gust Speed Precip Events Conditions
12:15 AM 48.2 °F - 15.8 °F 27% 29.86 in 10.0 mi NW 23.0 mph 35.7 mph N/A   Clear
12:35 AM 48.2 °F - 17.6 °F 30% 29.87 in 10.0 mi NNW 20.7 mph 34.5 mph N/A   Clear
12:55 AM 48.2 °F - 17.6 °F 30% 29.87 in 10.0 mi NW 20.7 mph 26.5 mph N/A   Clear
1:15 AM 46.4 °F 38.1 °F 19.4 °F 34% 29.87 in 10.0 mi NNW 24.2 mph 39.1 mph N/A   Clear
1:35 AM 46.4 °F 37.9 °F 19.4 °F 34% 29.87 in 10.0 mi NNW 25.3 mph 35.7 mph N/A   Clear
1:55 AM 46.4 °F 37.4 °F 19.4 °F 34% 29.87 in 10.0 mi NNW 28.8 mph 40.3 mph N/A   Clear
2:15 AM 46.4 °F 38.1 °F 21.2 °F 37% 29.88 in 10.0 mi NNW 24.2 mph 34.5 mph N/A   Clear
2:35 AM 46.4 °F 40.7 °F 23.0 °F 40% 29.87 in 10.0 mi NW 12.7 mph 24.2 mph N/A   Clear
2:55 AM 48.2 °F - 24.8 °F 40% 29.87 in 10.0 mi ESE 3.5 mph - N/A   Clear
3:15 AM 48.2 °F - 26.6 °F 43% 29.87 in 10.0 mi SSE 3.5 mph - N/A   Clear
3:35 AM 46.4 °F 42.4 °F 26.6 °F 46% 29.87 in 10.0 mi East 8.1 mph - N/A   Clear
3:55 AM 46.4 °F 43.5 °F 26.6 °F 46% 29.87 in 10.0 mi East 5.8 mph - N/A   Clear
4:15 AM 46.4 °F 41.1 °F 26.6 °F 46% 29.87 in 10.0 mi South 11.5 mph - N/A   Clear
4:35 AM 44.6 °F - 26.6 °F 49% 29.88 in 10.0 mi Calm Calm - N/A   Clear
4:55 AM 46.4 °F 42.9 °F 26.6 °F 46% 29.89 in 10.0 mi SSE 6.9 mph - N/A   Clear
5:15 AM 44.6 °F 39.2 °F 26.6 °F 49% 29.89 in 10.0 mi ESE 10.4 mph - N/A   Clear
5:35 AM 44.6 °F 40.2 °F 26.6 °F 49% 29.89 in 10.0 mi ESE 8.1 mph - N/A   Clear
5:55 AM 44.6 °F 43.1 °F 26.6 °F 49% 29.89 in 10.0 mi East 3.5 mph - N/A   Clear
6:15 AM 44.6 °F 42.2 °F 26.6 °F 49% 29.89 in 10.0 mi SE 4.6 mph - N/A   Clear
6:35 AM 44.6 °F 41.4 °F 28.4 °F 53% 29.90 in 10.0 mi SE 5.8 mph - N/A   Clear
6:55 AM 44.6 °F 39.2 °F 28.4 °F 53% 29.89 in 10.0 mi ESE 10.4 mph - N/A   Clear
7:15 AM 44.6 °F 39.2 °F 28.4 °F 53% 29.89 in 10.0 mi SE 10.4 mph - N/A   Clear
7:35 AM 44.6 °F 40.2 °F 28.4 °F 53% 29.89 in 10.0 mi South 8.1 mph - N/A   Clear
7:55 AM 44.6 °F 42.2 °F 24.8 °F 46% 29.90 in 10.0 mi South 4.6 mph - N/A   Clear
8:15 AM 46.4 °F 45.2 °F 26.6 °F 46% 29.90 in 10.0 mi South 3.5 mph - N/A   Clear
8:35 AM 46.4 °F - 26.6 °F 46% 29.90 in 10.0 mi Calm Calm - N/A   Clear
8:55 AM 46.4 °F - 26.6 °F 46% 29.90 in 10.0 mi Calm Calm - N/A   Clear
9:15 AM 46.4 °F - 24.8 °F 43% 29.89 in 10.0 mi Calm Calm - N/A   Clear
9:35 AM 46.4 °F 45.2 °F 24.8 °F 43% 29.89 in 10.0 mi WSW 3.5 mph - N/A   Clear
9:55 AM 48.2 °F - 24.8 °F 40% 29.89 in 10.0 mi Calm Calm - N/A   Clear
10:15 AM 48.2 °F - 24.8 °F 40% 29.88 in 10.0 mi Calm Calm - N/A   Clear
10:35 AM 51.8 °F - 24.8 °F 35% 29.88 in 10.0 mi Calm Calm - N/A   Clear
10:55 AM 51.8 °F - 24.8 °F 35% 29.87 in 10.0 mi South 4.6 mph - N/A   Clear
11:15 AM 50.0 °F - 24.8 °F 37% 29.86 in 10.0 mi SSW 4.6 mph - N/A   Clear
11:35 AM 51.8 °F - 24.8 °F 35% 29.86 in 10.0 mi West 3.5 mph - N/A   Clear
11:55 AM 53.6 °F - 24.8 °F 33% 29.86 in 10.0 mi South 5.8 mph - N/A   Clear
12:15 PM 53.6 °F - 24.8 °F 33% 29.85 in 10.0 mi North 3.5 mph - N/A   Clear
12:35 PM 55.4 °F - 24.8 °F 31% 29.84 in 10.0 mi SE 4.6 mph - N/A   Clear
12:55 PM 55.4 °F - 24.8 °F 31% 29.84 in 10.0 mi SSE 5.8 mph - N/A   Clear
1:15 PM 57.2 °F - 26.6 °F 31% 29.84 in 10.0 mi SSE 8.1 mph - N/A   Clear
1:35 PM 55.4 °F - 26.6 °F 33% 29.84 in 10.0 mi SSE 5.8 mph - N/A   Clear
1:55 PM 57.2 °F - 26.6 °F 31% 29.83 in 10.0 mi SE 4.6 mph - N/A   Clear
2:15 PM 57.2 °F - 26.6 °F 31% 29.83 in 10.0 mi SE 6.9 mph - N/A   Clear
2:35 PM 57.2 °F - 26.6 °F 31% 29.82 in 10.0 mi ESE 10.4 mph - N/A   Clear
3:15 PM 59.0 °F - 26.6 °F 29% 29.82 in 10.0 mi SE 6.9 mph - N/A   Clear
3:55 PM 60.8 °F - 26.6 °F 27% 29.81 in 10.0 mi Calm Calm - N/A   Clear
4:15 PM 60.8 °F - 26.6 °F 27% 29.80 in 10.0 mi SW 3.5 mph - N/A   Clear
4:35 PM 60.8 °F - 26.6 °F 27% 29.80 in 10.0 mi West 5.8 mph - N/A   Clear
4:55 PM 60.8 °F - 28.4 °F 29% 29.82 in 10.0 mi WNW 12.7 mph - N/A   Partly Cloudy
5:15 PM 60.8 °F - 30.2 °F 31% 29.82 in 10.0 mi West 16.1 mph 19.6 mph N/A   Scattered Clouds
5:35 PM 62.6 °F - 30.2 °F 30% 29.82 in 10.0 mi WNW 17.3 mph 28.8 mph N/A   Partly Cloudy
5:55 PM 60.8 °F - 32.0 °F 34% 29.83 in 10.0 mi NW 28.8 mph 32.2 mph N/A   Clear
6:15 PM 59.0 °F - 32.0 °F 36% 29.84 in 10.0 mi WNW 25.3 mph 34.5 mph N/A   Clear
6:35 PM 59.0 °F - 30.2 °F 34% 29.82 in 10.0 mi North 17.3 mph - N/A   Clear
6:55 PM 60.8 °F - 28.4 °F 29% 29.81 in 10.0 mi NNW 9.2 mph 16.1 mph N/A   Clear
7:15 PM 59.0 °F - 24.8 °F 27% 29.81 in 10.0 mi NW 6.9 mph - N/A   Clear
7:35 PM 60.8 °F - 23.0 °F 23% 29.81 in 10.0 mi NW 17.3 mph 24.2 mph N/A   Clear
7:55 PM 60.8 °F - 24.8 °F 25% 29.82 in 10.0 mi North 18.4 mph 25.3 mph N/A   Clear
8:15 PM 57.2 °F - 26.6 °F 31% 29.84 in 10.0 mi North 15.0 mph - N/A   Clear
8:35 PM 57.2 °F - 26.6 °F 31% 29.86 in 10.0 mi North 13.8 mph 18.4 mph N/A   Clear
9:15 PM 55.4 °F - 28.4 °F 36% 29.90 in 10.0 mi North 12.7 mph - N/A   Clear
9:35 PM 55.4 °F - 24.8 °F 31% 29.92 in 10.0 mi NNW 8.1 mph - N/A   Clear
9:55 PM 55.4 °F - 21.2 °F 26% 29.94 in 10.0 mi NNW 11.5 mph - N/A   Clear
10:15 PM 55.4 °F - 23.0 °F 29% 29.96 in 10.0 mi NW 8.1 mph - N/A   Clear
10:35 PM 53.6 °F - 28.4 °F 38% 29.97 in 10.0 mi WNW 10.4 mph - N/A   Clear
10:55 PM 51.8 °F - 26.6 °F 38% 29.98 in 10.0 mi West 11.5 mph - N/A   Clear
11:15 PM 51.8 °F - 26.6 °F 38% 30.00 in 10.0 mi West 11.5 mph - N/A   Clear
11:35 PM 51.8 °F - 26.6 °F 38% 30.00 in 10.0 mi West 10.4 mph - N/A   Clear
11:55 PM 51.8 °F - 26.6 °F 38% 30.01 in 10.0 mi WNW 8.1 mph - N/A   Clear